Location: Kawakawa
(35.3830°S, 174.0670°E)
Time: 11:55:49
(UTC+13:00)

Altair - Pass Details

Date: 09 December 2019
Orbit: 1502 x 1682 km, 47.2° (Epoch: 24 January)

Event Time Altitude Azimuth Distance (km) Brightness Sun altitude
Rises 15:50:50 0° 239° (WSW) 4,922 10.5 54.1°
Reaches altitude 10° 15:54:05 10° 235° (SW) 3,947 10.2 53.5°
Maximum altitude 16:04:10 61° 155° (SSE) 1,880 8.5 51.4°
Drops below altitude 10° 16:14:12 10° 75° (ENE) 3,929 9.4 49.4°
Sets 16:17:24 0° 71° (ENE) 4,899 9.8 48.8°
